Weather in Bazhuki

Russia / Perm Krai     57°11′33″N   56°29′44″E
temp.,
°C
wind,
m/s
gust,
m/s
humid.,
%
clouds,
%
prec.,
mm/h
press.,
hPa
HPBL,
m
18 january, mon
mon1823:00−19nw349587 0.1 101164
02:00−24wnw239418 0.0 101520
05:00−26wsw11968 0.0 101820
08:00−25wsw12950 0.0 101920
11:00−23sw229314 0.0 102025
14:00−19wsw23900 0.0 1021238
17:00−21ssw23950 0.0 102220
20:00−24wsw12940 0.0 102220
19 january, tue
tue1923:00−25wsw11930 0.0 102220
02:00−26ene119535 0.0 102320
05:00−24nne229264 0.0 102220
08:00−23ne2393100 0.0 102033
11:00−21nne2492100 0.0 1020110
14:00−18nne3588100 0.0 1018173
17:00−16ne3691100 0.0 1016139
20:00−13ene3796100 0.3 1015267
20 january, wed
wed2023:00−11ese3896100 1.1 1014359
02:00−11se3796100 0.6 1013289
05:00−11se2496100 1.1 1012131
08:00−12se2297100 0.4 101147
11:00−12se1296100 0.8 1011112
14:00−11wsw0194100 0.6 1010211
17:00−12w3595100 1.3 1010250
20:00−14wsw3695100 0.6 1011327
21 january, thu
thu2123:00−15wsw4895100 1.1 1011338
02:00−15wsw4894100 0.3 1012341
05:00−20w379694 0.3 1013137
08:00−21wsw3696100 0.1 1014183
11:00−20wsw3796100 0.1 1015253
14:00−17wsw479398 0.0 1015354
17:00−18sw379499 0.1 1015222
20:00−18sw3993100 0.0 1015247
22 january, fri
fri2223:00−18sw379599 0.0 1014177
02:00−16ssw4994100 0.0 1013346
05:00−16ssw51095100 0.2 1009376
08:00−15ssw51195100 1.1 1008587
11:00−15ssw4794100 1.8 1007428
14:00−13w249080 0.1 1008447
17:00−16wnw229484 0.1 101020
20:00−19wnw229715 0.0 101220